Parkersburg, WV

12:48 AM EDT on July 26, 2017 (GMT -0400)
Wood County Wilson

Weather History for KPKB - April, 2013

Change the Weather History Date:

Tuesday, April 30, 2013

  Actual Average Record
Temperature  
Mean Temperature 64 °F 58 °F  
Max Temperature 80 °F 71 °F 91 °F (1942)
Min Temperature 47 °F 46 °F 30 °F (1961)
Degree Days  
Heating Degree Days 1 8  
Month to date heating degree days 322 346  
Since 1 July heating degree days 4870 4806  
Cooling Degree Days 0 1  
Month to date cooling degree days 29 18  
Year to date cooling degree days 29 21  
Growing Degree Days 12 (Base 50)    
Moisture  
Dew Point 49 °F    
Average Humidity 68    
Maximum Humidity 100    
Minimum Humidity 35    
Precipitation  
Precipitation 0.00 in 0.11 in 0.92 in (1966)
Month to date precipitation 1.62 3.27  
Year to date precipitation 9.83 12.65  
Sea Level Pressure  
Sea Level Pressure 30.07 in    
Wind  
Wind Speed 3 mph (NE)    
Max Wind Speed 9 mph    
Max Gust Speed 13 mph    
Visibility 5 miles    
Events Fog    
T = Trace of Precipitation, MM = Missing Value Source: NWS Daily Summary

Daily Weather History Graph

Daily Weather History Graph

Search for Another Location

Airport or City:

Trip Planner

Search our weather history database for the weather conditions in past years. The results will help you decide how hot, cold, wet, or windy it might be!

Date:

Astronomy

Apr. 30, 2013 Rise Set
Actual Time 6:28 AM EDT 8:18 PM EDT
Civil Twilight 5:59 AM EDT 8:47 PM EDT
Nautical Twilight 5:24 AM EDT 9:22 PM EDT
Astronomical Twilight 4:46 AM EDT 10:00 PM EDT
Moon 12:40 AM EDT (4/30) 10:55 AM EDT (4/30)
Length of Visible Light 14h 48m
Length of Day
13h 50m
Waning Gibbous, 70% of the Moon is Illuminated
Apr 30
Waning Gibbous
May 2
Last Quarter
May 9
New
May 18
First Quarter
May 25
Full

Hourly Weather History & Observations

Time (EDT) Temp. Dew Point Humidity Pressure Visibility Wind Dir Wind Speed Gust Speed Precip Events Conditions
12:53 AM 53.1 °F 51.1 °F 93% 30.04 in 4.0 mi Calm Calm - N/A   Clear
1:45 AM 51.8 °F 50.0 °F 94% 30.04 in 1.8 mi Calm Calm - N/A   Clear
1:53 AM 51.1 °F 50.0 °F 96% 30.04 in 0.5 mi Calm Calm - N/A Fog Fog
2:00 AM 51.8 °F 48.2 °F 88% 30.04 in 0.8 mi Calm Calm - N/A   Mist
2:04 AM 51.8 °F 48.2 °F 88% 30.04 in 1.0 mi Calm Calm - N/A   Clear
2:17 AM 51.8 °F 48.2 °F 88% 30.04 in 2.5 mi Calm Calm - N/A   Clear
2:26 AM 51.8 °F 48.2 °F 88% 30.04 in 0.8 mi Calm Calm - N/A   Clear
2:53 AM 50.0 °F 48.0 °F 93% 30.04 in 1.5 mi Calm Calm - N/A   Clear
3:01 AM 50.0 °F 48.2 °F 94% 30.04 in 3.0 mi Calm Calm - N/A   Clear
3:09 AM 48.2 °F 46.4 °F 93% 30.04 in 2.5 mi Calm Calm - N/A   Clear
3:18 AM 48.2 °F 46.4 °F 93% 30.04 in 5.0 mi Calm Calm - N/A   Clear
3:39 AM 50.0 °F 48.2 °F 94% 30.05 in 4.0 mi Calm Calm - N/A   Scattered Clouds
3:44 AM 48.2 °F 46.4 °F 93% 30.05 in 1.5 mi Calm Calm - N/A   Mostly Cloudy
3:46 AM 48.2 °F 46.4 °F 93% 30.05 in 0.8 mi Calm Calm - N/A   Mist
3:53 AM 48.9 °F 48.0 °F 97% 30.05 in 0.2 mi Calm Calm - N/A Fog Fog
4:53 AM 48.0 °F 46.0 °F 93% 30.06 in 0.2 mi Calm Calm - N/A Fog Fog
5:53 AM 46.9 °F 45.0 °F 93% 30.07 in 0.2 mi Calm Calm - N/A Fog Fog
6:53 AM 46.9 °F 46.0 °F 97% 30.09 in 0.2 mi Calm Calm - 0.01 in Fog Fog
6:55 AM 46.4 °F 46.4 °F 100% 30.09 in 0.1 mi Calm Calm - N/A Fog Fog
7:53 AM 48.9 °F 48.9 °F 100% 30.11 in 0.1 mi Calm Calm - N/A Fog Fog
8:29 AM 51.8 °F 51.8 °F 100% 30.12 in 0.2 mi Calm Calm - N/A Fog Fog
8:44 AM 53.6 °F 51.8 °F 94% 30.12 in 1.2 mi Calm Calm - N/A   Mist
8:53 AM 54.0 °F 53.1 °F 97% 30.12 in 0.8 mi Calm Calm - N/A Fog Patches of Fog
9:12 AM 55.4 °F 53.6 °F 94% 30.12 in 4.0 mi Calm Calm - N/A Fog Patches of Fog
9:53 AM 62.1 °F 55.0 °F 78% 30.11 in 9.0 mi Calm Calm - N/A   Clear
10:53 AM 69.1 °F 55.0 °F 61% 30.11 in 10.0 mi Calm Calm - N/A   Partly Cloudy
11:53 AM 71.1 °F 52.0 °F 51% 30.10 in 10.0 mi Variable 4.6 mph - N/A   Partly Cloudy
12:53 PM 73.9 °F 50.0 °F 43% 30.10 in 10.0 mi Calm Calm - N/A   Scattered Clouds
1:53 PM 73.0 °F 48.0 °F 41% 30.09 in 10.0 mi North 4.6 mph - N/A   Scattered Clouds
2:53 PM 77.0 °F 50.0 °F 39% 30.09 in 10.0 mi East 4.6 mph - N/A   Partly Cloudy
3:53 PM 77.0 °F 51.1 °F 40% 30.07 in 10.0 mi NW 8.1 mph - N/A   Partly Cloudy
4:53 PM 78.1 °F 50.0 °F 37% 30.06 in 10.0 mi Variable 4.6 mph - N/A   Partly Cloudy
5:53 PM 78.1 °F 48.0 °F 35% 30.06 in 10.0 mi Variable 3.5 mph - N/A   Clear
6:53 PM 78.1 °F 48.0 °F 35% 30.06 in 10.0 mi NE 4.6 mph - N/A   Clear
7:53 PM 75.0 °F 48.0 °F 38% 30.07 in 10.0 mi NE 4.6 mph - N/A   Clear
8:53 PM 69.1 °F 50.0 °F 51% 30.09 in 10.0 mi Calm Calm - N/A   Clear
9:53 PM 66.0 °F 50.0 °F 56% 30.12 in 10.0 mi East 8.1 mph - N/A   Clear
11:53 PM 64.9 °F 50.0 °F 58% 30.13 in 10.0 mi East 4.6 mph - N/A   Clear